{"data":{"norad_id":63146,"intl_designator":"2025-043Q","name":"STARLINK-32952","alt_names":[],"object_type":"PAYLOAD","status":"ACTIVE","operator":null,"country":"US","launch_date":"2025-03-03","launch_site_code":"AFETR","launch_vehicle":null,"mission":null,"orbit_class":"UNKNOWN","rcs_meters":null,"size_class":null,"mass_kg":null,"dimensions":null,"purposes":["comms"],"wikipedia_slug":null,"has_3d_model":false,"image_url":null,"decayed_at":null,"tle_current":{"epoch":"2026-09-20T08:17:19.783104Z","epoch_age_seconds":175637,"freshness":"STALE","line1":"1 63146U 25043Q   26263.34536786  .00012094  00000+0  44824-3 0  9995","line2":"2 63146  43.0001   3.7133 0001116 223.1888 136.8876 15.27583617 87681","mean_motion":15.27583617,"eccentricity":0.0001116,"inclination_deg":43.0001,"raan_deg":3.7133,"arg_perigee_deg":223.1888,"mean_anomaly_deg":136.8876,"bstar":0.00044824,"rev_number":8768,"period_min":94.266525509615,"perigee_km":482.27255830219,"apogee_km":483.80397262144,"semimajor_km":6861.1752654618,"source":"CELESTRAK","updated_at":"2026-09-22T09:00:49.792776Z"}}}